This is the latest recevied weather packets stored in our database for station/object WZ9ZZZ-1. If no packets are shown the sender has not sent any weather packets the latest 10 day(s).
| Time | Temp. | Humidity | Pressure | Rain* | Wind** | Luminosity | Snow |
|---|---|---|---|---|---|---|---|
| 1777775197 | 18.33° C | 70% | 1023 hPa | 0 mm | - | 0 W/m² | - |
| 1777774892 | 18.89° C | 69% | 1023.1 hPa | 0 mm | - | 0 W/m² | - |
| 1777774589 | 18.89° C | 67% | 1023 hPa | 0 mm | - | 0 W/m² | - |
| 1777774285 | 18.89° C | 67% | 1023.2 hPa | 0 mm | - | 0 W/m² | - |
| 1777773982 | 19.44° C | 66% | 1023.2 hPa | 0 mm | - | 0 W/m² | - |
| 1777773680 | 19.44° C | 64% | 1022.8 hPa | 0 mm | - | 0 W/m² | - |
| 1777773377 | 19.44° C | 64% | 1022.9 hPa | 0 mm | - | 0 W/m² | - |
| 1777771863 | 20.56° C | 57% | 1022.5 hPa | 0 mm | - | 0 W/m² | - |
| 1777771560 | 21.11° C | 55% | 1022.7 hPa | 0 mm | - | 0 W/m² | - |
| 1777770650 | 21.11° C | 54% | 1022.4 hPa | 0 mm | - | 0 W/m² | - |
| 1777770346 | 21.67° C | 53% | 1022.4 hPa | 0 mm | - | 0 W/m² | - |
| 1777767923 | 22.78° C | 49% | 1021.9 hPa | 0 mm | - | 19 W/m² | - |
| 1777767316 | 22.78° C | 47% | 1021.9 hPa | 0 mm | - | 25 W/m² | - |
| 1777766711 | 23.33° C | 48% | 1021.7 hPa | 0 mm | - | 28 W/m² | - |
| 1777763981 | 23.89° C | 44% | 1021.6 hPa | 0 mm | - | 167 W/m² | - |
| 1777762772 | 24.44° C | 44% | 1021.4 hPa | 0 mm | - | 63 W/m² | - |
| 1777761255 | 24.44° C | 42% | 1021.4 hPa | 0 mm | - | 348 W/m² | - |
| 1777760954 | 25° C | 45% | 1021.5 hPa | 0 mm | - | 370 W/m² | - |
| 1777760351 | 25° C | 41% | 1021.4 hPa | 0 mm | - | 397 W/m² | - |
| 1777760048 | 25° C | 44% | 1021.4 hPa | 0 mm | - | 405 W/m² | - |
| 1777759745 | 25.56° C | 44% | 1021.3 hPa | 0 mm | - | 418 W/m² | - |
| 1777759441 | 25° C | 42% | 1021.5 hPa | 0 mm | - | 437 W/m² | - |
| 1777759137 | 25° C | 42% | 1021.5 hPa | 0 mm | - | 453 W/m² | - |
| 1777758228 | 25.56° C | 43% | 1021.3 hPa | 0 mm | - | 491 W/m² | - |
| 1777757926 | 25° C | 42% | 1021.3 hPa | 0 mm | - | 503 W/m² | - |
* Rain latest hour (hover to see other rain measurements)
** Current wind speed in m/s (hover to see current wind gust speed)